[[{"header":{"parameterUnit":"m.s-1","parameterCategory":1,"la1":30.2991,"la2":30.254,"lo1":-89.0895,"lo2":-89.0444,"dy":0.0017,"dx":0.0017,"nx":28,"ny":28,"refTime":"2024-09-26T09:00:00:Z","depth":0,"parameterNumber":2,"parameterNumberName":"U-component_of_WINDS"},"data":[0,0,0,0,0,0,0,0,0,0,0,0,0,0,0,0,0,0,0,0,0,0,0,0,0,0,0,0,0,0,0,0,0,0,0,0,0,0,0,0,0,0,0,0,0,0,0,0,0,0,0,0,0,0,0,0,0,0,-2.2006,-2.2005,0,-2.1942,-2.1941,-2.194,-2.1857,-2.1856,-2.1854,-2.1853,-2.1786,-2.1786,-2.1785,0,0,0,0,0,0,0,0,0,0,0,0,0,-2.2056,-2.2055,-2.2006,-2.2005,-2.2005,-2.1942,-2.1941,-2.194,-2.1857,-2.1856,-2.1854,-2.1852,-2.1787,-2.1786,-2.1785,0,0,0,0,0,0,0,0,0,0,0,0,0,-2.2017,-2.2055,-2.2006,-2.1956,-2.195,-2.1942,-2.1941,-2.194,-2.1858,-2.1856,-2.1853,-2.1852,-2.1787,-2.1786,-2.1785,-2.1821,0,0,-2.1783,-2.1783,0,0,0,0,0,0,0,0,-2.202,-2.2015,-2.1964,-2.1959,-2.1953,-2.1905,-2.1934,-2.19,-2.1858,-2.1893,-2.1853,-2.1851,-2.1828,-2.1823,-2.1816,-2.1818,-2.1815,-2.1783,-2.1782,-2.1782,-2.1782,0,0,0,0,0,0,0,-2.2022,-2.2018,-2.1981,-2.1963,-2.1957,-2.1936,-2.1928,-2.1927,-2.1872,-2.189,-2.1883,-2.1877,-2.1824,-2.1817,-2.1814,-2.1814,-2.1783,-2.1782,-2.1782,-2.1782,-2.1841,-2.1843,0,0,0,0,0,0,-2.2033,-2.2021,-2.1983,-2.1979,-2.1982,-2.1936,-2.1928,-2.1923,-2.1872,-2.1862,-2.1879,-2.1873,-2.1819,-2.1815,-2.1811,-2.1849,-2.1782,-2.1781,-2.1781,-2.1839,-2.1841,-2.1844,0,0,0,0,0,0,-2.2034,-2.203,-2.1985,-2.1998,-2.1991,-2.1938,-2.1933,-2.1923,-2.1915,-2.1864,-2.1854,-2.1881,-2.1817,-2.1812,-2.1819,-2.1845,-2.1781,-2.178,-2.1837,-2.184,-2.1843,-2.1926,0,0,0,0,0,0,-2.2036,-2.2031,-2.2045,-2.1999,-2.199,-2.1995,-2.1934,-2.1923,-2.1914,-2.1906,-2.1863,-2.1854,-2.1815,-2.1821,-2.1818,-2.1843,-2.178,-2.1834,-2.1838,-2.1842,-2.192,-2.1931,-2.194,0,0,0,0,0,-2.2038,-2.2071,-2.2046,-2.2042,-2.2006,-2.1997,-2.1992,-2.1946,-2.1916,-2.1929,-2.1896,-2.1856,-2.1843,-2.1822,-2.1819,-2.1844,-2.1832,-2.1837,-2.1841,-2.1916,-2.1929,-2.194,0,0,0,0,0,0,-2.2122,-2.2064,-2.2036,-2.2055,-2.2031,-2.1983,-2.1998,-2.1962,-2.1947,-2.194,-2.1884,-2.1875,-2.1889,-2.1866,-2.1844,-2.1875,-2.1831,-2.1835,-2.1889,-2.1901,-2.1911,-2.1916,-2.1779,0,0,0,0,0,-2.2142,-2.214,-2.2089,-2.2111,-2.2101,-2.2052,-2.2046,-2.2013,-2.1986,-2.1976,-2.1943,-2.1919,-2.1909,-2.1904,-2.1892,-2.1916,-2.1905,-2.1932,-2.1942,-2.195,-2.1955,-2.1965,-2.1976,-2.1859,-2.1859,-2.1859,0,0,-2.2185,-2.2153,-2.2155,-2.2127,-2.2105,-2.2104,-2.2044,-2.2045,-2.2043,-2.1976,-2.198,-2.1956,-2.1924,-2.194,-2.1945,-2.1922,-2.1984,-2.1956,-2.1963,-2.1963,-2.1971,-2.1982,-2.1992,-2.1862,-2.1861,-2.1861,0,0,-2.2262,-2.2238,-2.2253,-2.2232,-2.2199,-2.2166,-2.217,-2.2126,-2.2107,-2.2111,-2.206,-2.2056,-2.2041,-2.202,-2.2008,-2.2075,-2.2037,-2.2073,-2.2126,-2.2137,-2.2146,-2.2154,-2.2177,-2.2187,-2.2077,-2.2078,-2.2078,0,-2.232,-2.2316,-2.2266,-2.2269,-2.2258,-2.2197,-2.2211,-2.2193,-2.2158,-2.2151,-2.2126,-2.2104,-2.2079,-2.2088,-2.2105,-2.2097,-2.2099,-2.2078,-2.2149,-2.2156,-2.2163,-2.2185,-2.2194,-2.2082,-2.2082,-2.2081,-2.2081,0,-2.2387,-2.2385,-2.2401,-2.2369,-2.2359,-2.2369,-2.2319,-2.2315,-2.2282,-2.2252,-2.2255,-2.2222,-2.2202,-2.2202,-2.217,-2.2207,-2.2193,-2.2159,-2.2114,-2.2179,-2.2199,-2.2207,-2.2089,-2.2087,-2.2086,-2.2084,0,0,-2.2517,-2.2456,-2.2463,-2.2447,-2.2405,-2.2402,-2.2408,-2.2388,-2.2386,-2.2363,-2.2366,-2.2354,-2.2321,-2.2307,-2.2272,-2.2281,-2.2336,-2.2245,-2.2244,-2.2263,-2.2374,-2.24,-2.2411,-2.231,-2.2311,-2.2313,-2.2376,0,-2.2587,-2.2594,-2.2548,-2.2567,-2.2564,-2.2505,-2.2509,-2.2484,-2.2455,-2.2448,-2.2415,-2.2407,-2.2365,-2.2356,-2.2362,-2.2328,-2.2358,-2.2323,-2.2312,-2.2312,-2.2322,-2.2421,-2.2449,-2.2511,-2.2384,-2.2385,-2.2386,0,-2.2669,-2.2651,-2.267,-2.2626,-2.2623,-2.2629,-2.2606,-2.26,-2.2569,-2.2547,-2.2531,-2.249,-2.2492,-2.2448,-2.2449,-2.2427,-2.2419,-2.2401,-2.2403,-2.24,-2.2354,-2.2422,-2.253,-2.2539,-2.2397,-2.2396,-2.2396,0,-2.2762,-2.2742,-2.2751,-2.2739,-2.2688,-2.2693,-2.2672,-2.2639,-2.263,-2.261,-2.2603,-2.2584,-2.2573,-2.2558,-2.2513,-2.2486,-2.2519,-2.2472,-2.25,-2.2501,-2.2511,-2.2511,-2.2619,-2.2505,-2.2505,-2.2505,-2.2505,0,-2.2845,-2.2859,-2.2791,-2.2797,-2.281,-2.2757,-2.2771,-2.2744,-2.2715,-2.2714,-2.266,-2.266,-2.26,-2.2592,-2.2556,-2.2562,-2.2557,-2.2539,-2.253,-2.2544,-2.2547,-2.2539,-2.2534,-2.2507,-2.2507,-2.2506,-2.2506,0,-2.2952,-2.2907,-2.2912,-2.2863,-2.2851,-2.2863,-2.2821,-2.2823,-2.279,-2.2789,-2.2785,-2.2733,-2.2721,-2.2674,-2.2651,-2.2626,-2.2644,-2.2625,-2.2654,-2.2648,-2.2679,-2.2677,-2.2787,-2.2798,-2.2677,-2.2679,-2.268,0,-2.3008,-2.3017,-2.2969,-2.2964,-2.2946,-2.2938,-2.2928,-2.2875,-2.2867,-2.2832,-2.2838,-2.2822,-2.2806,-2.279,-2.2749,-2.2731,-2.2711,-2.2751,-2.2708,-2.2722,-2.2711,-2.2712,-2.2712,-2.276,-2.2762,-2.2763,-2.2764,0,-2.3112,-2.3089,-2.3077,-2.3057,-2.3047,-2.3028,-2.3007,-2.3005,-2.2946,-2.2939,-2.2926,-2.2914,-2.289,-2.2874,-2.2848,-2.2825,-2.2785,-2.2778,-2.2783,-2.2799,-2.2816,-2.2807,-2.268,-2.2776,-2.2775,-2.2774,-2.2773,-2.2773,-2.3195,-2.32,-2.3167,-2.3155,-2.3133,-2.3114,-2.3113,-2.308,-2.3068,-2.3044,-2.3013,-2.3004,-2.2971,-2.2933,-2.2913,-2.2904,-2.2882,-2.289,-2.2892,-2.2895,-2.2902,-2.2817,-2.2899,-2.2899,-2.2898,-2.2898,-2.2898,0,-2.3297,-2.3273,-2.3262,-2.3233,-2.3223,-2.3185,-2.3159,-2.3153,-2.3146,-2.3119,-2.3104,-2.3088,-2.3072,-2.303,-2.301,-2.3011,-2.2991,-2.3007,-2.3007,-2.3002,-2.2923,-2.2921,-2.3023,-2.3023,-2.3023,-2.3023,-2.3023,-2.3023,-2.3349,-2.3356,-2.3329,-2.3323,-2.3297,-2.3288,-2.3276,-2.3258,-2.3236,-2.3221,-2.3207,-2.318,-2.3146,-2.3122,-2.3106,-2.3093,-2.3088,-2.311,-2.3092,-2.3019,-2.3008,-2.2996,-2.2993,-2.3109,-2.3109,-2.3171,-2.3172,-2.3172]},{"header":{"parameterUnit":"m.s-1","parameterCategory":1,"la1":30.2991,"la2":30.254,"lo1":-89.0895,"lo2":-89.0444,"dy":0.0017,"dx":0.0017,"nx":28,"ny":28,"refTime":"2024-09-26T09:00:00:Z","depth":0,"parameterNumber":3,"parameterNumberName":"V-component_of_WINDS"},"data":[0,0,0,0,0,0,0,0,0,0,0,0,0,0,0,0,0,0,0,0,0,0,0,0,0,0,0,0,0,0,0,0,0,0,0,0,0,0,0,0,0,0,0,0,0,0,0,0,0,0,0,0,0,0,0,0,0,0,-7.6917,-7.6919,0,-7.7049,-7.7051,-7.7052,-7.699,-7.6987,-7.6983,-7.698,-7.7108,-7.7114,-7.7121,0,0,0,0,0,0,0,0,0,0,0,0,0,-7.6607,-7.6613,-7.6917,-7.6919,-7.6921,-7.7049,-7.7051,-7.7052,-7.699,-7.6986,-7.6982,-7.6979,-7.7106,-7.7114,-7.7121,0,0,0,0,0,0,0,0,0,0,0,0,0,-7.674,-7.6615,-7.6917,-7.6905,-7.6906,-7.7048,-7.7051,-7.7053,-7.6991,-7.6986,-7.6981,-7.6977,-7.7103,-7.7113,-7.7122,-7.7282,0,0,-7.7152,-7.7156,0,0,0,0,0,0,0,0,-7.6733,-7.6751,-7.6905,-7.6906,-7.6907,-7.6998,-7.6988,-7.713,-7.6993,-7.6959,-7.698,-7.6974,-7.7075,-7.7087,-7.7122,-7.7288,-7.7294,-7.7153,-7.7159,-7.7163,-7.7166,0,0,0,0,0,0,0,-7.6723,-7.6745,-7.6969,-7.6908,-7.6909,-7.6892,-7.6905,-7.7014,-7.7043,-7.6961,-7.6957,-7.6974,-7.7074,-7.7113,-7.7125,-7.7296,-7.7153,-7.7161,-7.7167,-7.7171,-7.76,-7.7606,0,0,0,0,0,0,-7.6715,-7.6738,-7.6965,-7.6973,-7.6806,-7.6901,-7.6916,-7.6974,-7.7042,-7.7047,-7.6978,-7.697,-7.7099,-7.7113,-7.7129,-7.7322,-7.7163,-7.7172,-7.7178,-7.7595,-7.7602,-7.7608,0,0,0,0,0,0,-7.6709,-7.6736,-7.696,-7.6855,-7.6882,-7.6912,-7.6977,-7.6979,-7.7017,-7.7054,-7.7058,-7.7013,-7.7095,-7.7115,-7.7245,-7.7325,-7.7177,-7.7186,-7.7588,-7.7597,-7.7605,-7.7707,0,0,0,0,0,0,-7.67,-7.6734,-7.6797,-7.6857,-7.6888,-7.7076,-7.6982,-7.6985,-7.7035,-7.7027,-7.7088,-7.7093,-7.7093,-7.7231,-7.7255,-7.7336,-7.7193,-7.7581,-7.7592,-7.7602,-7.7697,-7.7718,-7.7736,0,0,0,0,0,-7.6689,-7.6818,-7.68,-7.6828,-7.6967,-7.7081,-7.7098,-7.7097,-7.7042,-7.7104,-7.7128,-7.7091,-7.7313,-7.7245,-7.7271,-7.7356,-7.7576,-7.7589,-7.7601,-7.7688,-7.7714,-7.7736,0,0,0,0,0,0,-7.6764,-7.6826,-7.6806,-7.6959,-7.7016,-7.707,-7.7148,-7.7125,-7.7196,-7.7185,-7.7179,-7.7193,-7.7328,-7.7355,-7.7279,-7.7515,-7.7436,-7.7454,-7.7493,-7.7518,-7.7537,-7.7528,-7.7201,0,0,0,0,0,-7.6799,-7.6888,-7.6936,-7.7066,-7.7096,-7.7118,-7.7167,-7.7162,-7.7219,-7.7242,-7.7275,-7.733,-7.7412,-7.7466,-7.7544,-7.7701,-7.7713,-7.7772,-7.7792,-7.7808,-7.7823,-7.7909,-7.7936,-7.7649,-7.7648,-7.7648,0,0,-7.687,-7.6915,-7.6971,-7.7083,-7.7126,-7.7217,-7.7138,-7.7237,-7.7305,-7.7256,-7.7382,-7.7409,-7.747,-7.7615,-7.768,-7.7641,-7.7906,-7.7823,-7.7836,-7.7843,-7.7925,-7.7952,-7.7976,-7.7657,-7.7655,-7.7654,0,0,-7.7047,-7.7091,-7.7204,-7.725,-7.7318,-7.7331,-7.7359,-7.7418,-7.7435,-7.7562,-7.7528,-7.7606,-7.7748,-7.7793,-7.7834,-7.8032,-7.8,-7.8057,-7.8159,-7.8243,-7.8266,-7.8286,-7.8356,-7.8382,-7.8072,-7.8073,-7.8073,0,-7.7127,-7.7266,-7.7265,-7.7369,-7.7419,-7.7382,-7.7497,-7.754,-7.7628,-7.7663,-7.7619,-7.7797,-7.7835,-7.799,-7.8039,-7.8073,-7.8104,-7.8049,-7.8263,-7.8283,-7.8302,-7.8369,-7.8395,-7.8079,-7.8078,-7.8078,-7.8077,0,-7.7361,-7.7457,-7.7541,-7.7631,-7.769,-7.7798,-7.7813,-7.7872,-7.7863,-7.7881,-7.801,-7.8055,-7.8142,-7.8178,-7.8168,-7.8333,-7.8307,-7.8263,-7.8183,-7.8336,-7.8399,-7.8424,-7.8088,-7.8086,-7.8084,-7.8082,0,0,-7.7587,-7.7678,-7.7708,-7.7749,-7.7822,-7.7896,-7.8002,-7.809,-7.8141,-7.8203,-7.8292,-7.8413,-7.8374,-7.8421,-7.8416,-7.849,-7.8644,-7.8437,-7.8438,-7.8474,-7.8829,-7.8861,-7.8891,-7.8624,-7.8629,-7.8633,-7.8824,0,-7.777,-7.796,-7.7964,-7.8137,-7.8226,-7.8194,-7.8286,-7.834,-7.836,-7.8437,-7.8458,-7.8545,-7.8486,-7.8515,-7.8586,-7.861,-7.8715,-7.8596,-7.8705,-7.8709,-7.8692,-7.8924,-7.8959,-7.9137,-7.8848,-7.8852,-7.8855,0,-7.8009,-7.8083,-7.8266,-7.8328,-7.8365,-7.8449,-7.853,-7.8605,-7.8665,-7.8674,-7.8729,-7.8713,-7.882,-7.8738,-7.8885,-7.8804,-7.8849,-7.8868,-7.8874,-7.8884,-7.8792,-7.8941,-7.9194,-7.9221,-7.8894,-7.8891,-7.8888,0,-7.8157,-7.8302,-7.8431,-7.8466,-7.8541,-7.8601,-7.8634,-7.869,-7.8743,-7.8813,-7.8847,-7.8928,-7.8972,-7.9034,-7.904,-7.8979,-7.9189,-7.9106,-7.9199,-7.9199,-7.9244,-7.9241,-7.9508,-7.9273,-7.9272,-7.9272,-7.9271,0,-7.8362,-7.8475,-7.8499,-7.8578,-7.8704,-7.8706,-7.883,-7.8858,-7.8908,-7.8991,-7.8967,-7.9044,-7.9048,-7.9127,-7.9132,-7.9254,-7.9273,-7.9283,-7.9283,-7.9286,-7.9285,-7.9315,-7.9303,-7.9279,-7.9277,-7.9276,-7.9275,0,-7.8548,-7.8568,-7.8707,-7.8768,-7.8786,-7.8876,-7.8927,-7.9001,-7.902,-7.9125,-7.915,-7.9178,-7.927,-7.9283,-7.939,-7.9393,-7.954,-7.9526,-7.9521,-7.9519,-7.9611,-7.9602,-7.9906,-7.9946,-7.9685,-7.9687,-7.9689,0,-7.8677,-7.8764,-7.8836,-7.8891,-7.8929,-7.9017,-7.9072,-7.9078,-7.9136,-7.9212,-7.9278,-7.9368,-7.9441,-7.959,-7.9618,-7.97,-7.9689,-7.979,-7.97,-7.9701,-7.9691,-7.9686,-7.9695,-7.9807,-7.981,-7.9812,-7.9814,0,-7.8905,-7.8911,-7.8993,-7.9079,-7.9146,-7.9213,-7.9276,-7.9322,-7.9335,-7.9401,-7.9497,-7.9554,-7.9665,-7.9755,-7.9836,-7.9868,-7.9844,-7.9842,-7.9868,-7.9871,-7.9865,-7.987,-7.9568,-7.9835,-7.9833,-7.9831,-7.983,-7.9829,-7.9067,-7.9144,-7.9207,-7.9298,-7.9347,-7.9407,-7.9482,-7.9511,-7.9591,-7.9684,-7.9682,-7.9787,-7.9845,-7.9953,-7.9991,-8.0072,-8.0039,-8.0076,-8.0085,-8.0095,-8.0104,-7.9852,-8.0087,-8.0086,-8.0086,-8.0085,-8.0085,0,-7.9294,-7.9333,-7.9418,-7.9509,-7.9581,-7.9555,-7.9623,-7.9685,-7.9779,-7.9837,-7.991,-8.002,-8.0108,-8.0145,-8.023,-8.0288,-8.0279,-8.031,-8.0306,-8.0314,-8.0129,-8.0098,-8.0317,-8.0317,-8.0317,-8.0316,-8.0316,-8.0316,-7.942,-7.9549,-7.9563,-7.9716,-7.9753,-7.9859,-7.9901,-7.9956,-8.0002,-8.0128,-8.0202,-8.0226,-8.0275,-8.0364,-8.0443,-8.0451,-8.0484,-8.0521,-8.0524,-8.035,-8.0327,-8.0305,-8.0276,-8.0528,-8.0528,-8.0703,-8.0704,-8.0706]}]]